Location: Lichtensteig
(47.3376°N, 9.0841°E)
Time: 03:33:18
(UTC+00:00)

CSL-04 Rocket - Pass Details

Date: 03 March 2021
Orbit: 805 x 861 km, 98.9° (Epoch: 16 April)

Event Time Altitude Azimuth Distance (km) Brightness Sun altitude
Rises 18:21:33 0° 161° (SSE) 3,424 6.6 -12.6°
Reaches altitude 10° 18:23:55 10° 161° (SSE) 2,490 5.9 -13.0°
Maximum altitude 18:29:27 84° 74° (ENE) 866 3.7 -13.9°
Drops below altitude 10° 18:35:00 10° 346° (NNW) 2,485 6.4 -14.9°
Sets 18:37:22 0° 346° (NNW) 3,418 7.1 -15.3°
